This is the latest recevied weather packets stored in our database for station/object DB0GIS-11. If no packets are shown the sender has not sent any weather packets the latest 10 day(s).
| Time | Temp. | Humidity | Pressure | Rain* | Wind** | Luminosity | Snow |
|---|---|---|---|---|---|---|---|
| 1777693648 | 10° C | 60% | 1019.1 hPa | 0 mm | - | - | - |
| 1777693070 | 10° C | 60% | 1019 hPa | 0 mm | - | - | - |
| 1777691287 | 10.56° C | 58% | 1019 hPa | 0 mm | - | - | - |
| 1777688252 | 11.67° C | 57% | 1019.1 hPa | 0 mm | - | - | - |
| 1777687056 | 12.22° C | 55% | 1019.2 hPa | 0 mm | - | - | - |
| 1777686461 | 12.22° C | 56% | 1019.4 hPa | 0 mm | - | - | - |
| 1777685848 | 12.78° C | 55% | 1019.3 hPa | 0 mm | - | - | - |
| 1777683461 | 12.78° C | 55% | 1019.6 hPa | 0 mm | - | - | - |
| 1777682248 | 12.78° C | 54% | 1020 hPa | 0 mm | - | - | - |
| 1777681654 | 12.78° C | 54% | 1020 hPa | 0 mm | - | - | - |
| 1777681056 | 12.78° C | 53% | 1020.1 hPa | 0 mm | - | - | - |
| 1777680497 | 12.78° C | 53% | 1020.1 hPa | 0 mm | - | - | - |
| 1777678651 | 13.33° C | 51% | 1020.4 hPa | 0 mm | - | - | - |
| 1777677454 | 13.33° C | 51% | 1020.3 hPa | 0 mm | - | - | - |
| 1777676249 | 13.89° C | 51% | 1020.1 hPa | 0 mm | - | - | - |
| 1777675060 | 13.89° C | 51% | 1020.3 hPa | 0 mm | - | - | - |
| 1777674445 | 13.89° C | 51% | 1020.3 hPa | 0 mm | - | - | - |
| 1777673266 | 13.89° C | 51% | 1020.1 hPa | 0 mm | - | - | - |
| 1777672656 | 13.89° C | 51% | 1020.2 hPa | 0 mm | - | - | - |
| 1777671447 | 14.44° C | 51% | 1020.2 hPa | 0 mm | - | - | - |
| 1777670248 | 14.44° C | 50% | 1020.1 hPa | 0 mm | - | - | - |
| 1777669665 | 14.44° C | 49% | 1020.1 hPa | 0 mm | - | - | - |
| 1777667847 | 15.56° C | 47% | 1020.3 hPa | 0 mm | - | - | - |
| 1777666653 | 16.11° C | 46% | 1020.4 hPa | 0 mm | - | - | - |
| 1777664845 | 16.67° C | 44% | 1020.1 hPa | 0 mm | - | - | - |
* Rain latest hour (hover to see other rain measurements)
** Current wind speed in m/s (hover to see current wind gust speed)